This is the latest recevied weather packets stored in our database for station/object GUNLAK-WX. If no packets are shown the sender has not sent any weather packets the latest 10 day(s).
| Time | Temp. | Humidity | Pressure | Rain* | Wind** | Luminosity | Snow |
|---|---|---|---|---|---|---|---|
| 1777438905 | 9.44° C | 87% | 986.1 hPa | 0 mm | - | - | - |
| 1777437973 | 9.44° C | 84% | 987.6 hPa | 0 mm | - | - | - |
| 1777437092 | 9.44° C | 84% | 987.6 hPa | 0 mm | - | - | - |
| 1777436171 | 9.44° C | 87% | 985.4 hPa | 0 mm | - | - | - |
| 1777435307 | 9.44° C | 87% | 985.4 hPa | 0 mm | - | - | - |
| 1777434372 | 9.44° C | 83% | 987 hPa | 0 mm | - | - | - |
| 1777433492 | 9.44° C | 84% | 987 hPa | 0 mm | - | - | - |
| 1777432572 | 10° C | 84% | 986.7 hPa | 0 mm | - | - | - |
| 1777431703 | 10° C | 84% | 986.7 hPa | 0 mm | - | - | - |
| 1777430771 | 10° C | 77% | 984.7 hPa | 0 mm | - | - | - |
| 1777429888 | 10.56° C | 77% | 984.7 hPa | 0 mm | - | - | - |
| 1777428972 | 11.11° C | 78% | 985.8 hPa | 0 mm | - | - | - |
| 1777428100 | 10.56° C | 78% | 985.8 hPa | 0 mm | - | - | - |
| 1777427172 | 11.11° C | 78% | 985.4 hPa | 0 mm | - | - | - |
| 1777426287 | 11.11° C | 78% | 985.4 hPa | 0 mm | - | - | - |
| 1777425372 | 11.11° C | 78% | 985.4 hPa | 0 mm | - | - | - |
| 1777424498 | 11.67° C | 78% | 985.4 hPa | 0 mm | - | - | - |
| 1777423571 | 11.11° C | 76% | 985.1 hPa | 0 mm | - | - | - |
| 1777422685 | 11.11° C | 78% | 985.6 hPa | 0 mm | - | - | - |
| 1777421771 | 11.67° C | 78% | 985.6 hPa | 0 mm | - | - | - |
| 1777420908 | 11.67° C | 78% | 985.6 hPa | 0 mm | - | - | - |
| 1777419971 | 12.22° C | 65% | 985.9 hPa | 0 mm | - | - | - |
| 1777419087 | 12.22° C | 66% | 986.1 hPa | 0 mm | - | - | - |
| 1777418171 | 12.78° C | 66% | 986.1 hPa | 0 mm | - | - | - |
| 1777417295 | 12.78° C | 66% | 986.1 hPa | 0 mm | - | - | - |
* Rain latest hour (hover to see other rain measurements)
** Current wind speed in m/s (hover to see current wind gust speed)